User: anonymous   Login
Location: Unspecified
(0.0000°N, 0.0000°E)
Time: 21:10:51
(UTC+00:00)
Language:

HODOYOSHI 1 - Orbit

View from above orbital plane
View from above orbital plane
View from above satellite
View from above satellite

Ground track
Ground track

The orbit data is extracted from the following two-line orbital elements,

1 40299U 14070B   24108.48748402  .00033899  00000-0  73078-3 0  9998
2 40299  97.1460 169.4608 0006817 247.6843 112.3684 15.44485395525749
Epoch (UTC): 17 April 2024 11:41:58
Eccentricity: 0.0006817
inclination: 97.1460°
perigee height: 428 km
apogee height: 437 km
right ascension of ascending node: 169.4608°
argument of perigee: 247.6843°
revolutions per day: 15.44485395
mean anomaly at epoch: 112.3684°
orbit number at epoch: 52574

The dashed part of the orbit path shows where the satellite is in the earth's shadow,  

DLR